Weather History for Newport News, VA

Change the Weather History Date:

Tuesday, February 18, 2014

  Actual Average Record
Temperature  
Mean Temperature 50 °F -  
Max Temperature 64 °F 46 °F 76 °F (1976)
Min Temperature 37 °F 29 °F 8 °F (1973)
Degree Days  
Heating Degree Days 14    
Moisture  
Dew Point 30 °F    
Average Humidity 61    
Maximum Humidity 86    
Minimum Humidity 21    
Precipitation  
Precipitation 0.04 in - - ()
Sea Level Pressure  
Sea Level Pressure 30.14 in    
Wind  
Wind Speed 6 mph (West)    
Max Wind Speed 20 mph    
Max Gust Speed 26 mph    
Visibility 9 miles    
Events Rain    
Averages and records for this station are not official NWS values.
T = Trace of Precipitation, MM = Missing Value Source: NWS Daily Summary

Daily Weather History Graph

Daily Weather History Graph

Search for Another Location

Airport:

Trip Planner

Search our weather history database for the weather conditions in past years. The results will help you decide how hot, cold, wet, or windy it might be!

Date:

Astronomy

Feb. 18, 2014 Rise Set
Actual Time 6:51 AM EST 5:49 PM EST
Civil Twilight 6:24 AM EST 6:15 PM EST
Nautical Twilight 5:54 AM EST 6:45 PM EST
Astronomical Twilight 5:24 AM EST 7:16 PM EST
Moon 9:33 PM EST (2/18) 8:28 AM EST (2/18)
Length of Visible Light 11h 50m
Length of Day
10h 57m
Waning Gibbous, 87% of the Moon is Illuminated
Feb 18
Waning Gibbous
Feb 22
Last Quarter
Mar 1
New
Mar 8
First Quarter
Mar 16
Full

Hourly Weather History & Observations

Time (EST) Temp. Windchill Dew Point Humidity Pressure Visibility Wind Dir Wind Speed Gust Speed Precip Events Conditions
12:54 AM 37.9 °F - 27.0 °F 65% 30.23 in 10.0 mi Calm Calm - N/A   Overcast
1:54 AM 37.0 °F - 30.9 °F 79% 30.20 in 9.0 mi Calm Calm - 0.01 in Rain Light Rain
2:20 AM 37.4 °F 34.9 °F 32.0 °F 81% 30.19 in 10.0 mi North 3.5 mph - 0.00 in Rain Light Rain
2:54 AM 37.0 °F - 32.0 °F 82% 30.17 in 5.0 mi North - - 0.03 in Rain Light Rain
3:54 AM 37.0 °F - 32.0 °F 82% 30.14 in 10.0 mi Calm Calm - 0.00 in Rain Light Rain
4:54 AM 37.9 °F 34.4 °F 34.0 °F 86% 30.10 in 10.0 mi Variable 4.6 mph - 0.00 in   Overcast
5:21 AM 39.2 °F 32.5 °F 33.8 °F 81% 30.13 in 9.0 mi WNW 10.4 mph 20.7 mph N/A   Overcast
5:54 AM 37.9 °F 33.5 °F 34.0 °F 86% 30.12 in 9.0 mi West 5.8 mph - N/A   Overcast
6:32 AM 37.4 °F 30.8 °F 32.0 °F 81% 30.15 in 9.0 mi WNW 9.2 mph 19.6 mph N/A   Overcast
6:46 AM 37.4 °F 29.8 °F 30.2 °F 75% 30.16 in 10.0 mi WNW 11.5 mph - N/A   Overcast
6:54 AM 37.0 °F 31.0 °F 30.9 °F 79% 30.17 in 10.0 mi WNW 8.1 mph - N/A   Overcast
7:21 AM 37.4 °F 32.1 °F 32.0 °F 81% 30.15 in 8.0 mi West 6.9 mph - N/A   Overcast
7:54 AM 37.9 °F 30.9 °F 33.1 °F 83% 30.17 in 6.0 mi WSW 10.4 mph - N/A   Haze
8:37 AM 39.2 °F 33.6 °F 33.8 °F 81% 30.16 in 6.0 mi WSW 8.1 mph - N/A   Haze
8:54 AM 42.1 °F 36.6 °F 34.0 °F 73% 30.16 in 7.0 mi WSW 9.2 mph - N/A   Clear
9:54 AM 46.0 °F 41.0 °F 35.1 °F 66% 30.15 in 9.0 mi West 10.4 mph - N/A   Clear
10:54 AM 51.1 °F - 36.0 °F 56% 30.14 in 10.0 mi WSW 11.5 mph 19.6 mph N/A   Clear
11:54 AM 57.9 °F - 32.0 °F 37% 30.12 in 10.0 mi WSW 15.0 mph 24.2 mph N/A   Clear
12:54 PM 61.0 °F - 30.0 °F 31% 30.09 in 10.0 mi WSW 13.8 mph 25.3 mph N/A   Clear
1:54 PM 63.0 °F - 27.0 °F 26% 30.08 in 10.0 mi WSW 19.6 mph 25.3 mph N/A   Clear
2:54 PM 64.0 °F - 24.1 °F 22% 30.07 in 10.0 mi West 16.1 mph 26.5 mph N/A   Clear
3:54 PM 64.9 °F - 24.1 °F 21% 30.08 in 10.0 mi WSW 16.1 mph - N/A   Clear
4:54 PM 61.0 °F - 23.0 °F 23% 30.09 in 10.0 mi West 9.2 mph - N/A   Clear
5:54 PM 57.0 °F - 23.0 °F 27% 30.11 in 10.0 mi WSW 6.9 mph - N/A   Clear
6:54 PM 52.0 °F - 24.1 °F 34% 30.12 in 10.0 mi SW 4.6 mph - N/A   Clear
7:54 PM 48.9 °F - 25.0 °F 39% 30.12 in 10.0 mi Calm Calm - N/A   Clear
8:54 PM 41.0 °F - 28.0 °F 60% 30.14 in 10.0 mi Calm Calm - N/A   Clear
9:54 PM 41.0 °F - 28.0 °F 60% 30.14 in 10.0 mi Calm Calm - N/A   Clear
10:54 PM 41.0 °F - 28.0 °F 60% 30.13 in 10.0 mi Calm Calm - N/A   Clear
11:54 PM 39.9 °F - 28.0 °F 63% 30.11 in 10.0 mi Calm Calm - N/A   Clear